Temp
23 22 23 24 24 24 23 22 21 21 21 21 21 21 22 22 22 23 23 23 23 22 22 21 21 21 21 21 20 20 20 20 20 19 19 19 19 19 19 19 19 19 19 19 18 18 18 18 18 18 18 18 18 18 18 18 18 18 18 19 19 19 19 19 19 19 19 18 18 18 18 18 18 18 18 18 18 18 18 18 18 18 18 18 18
22 22 23 23 24 24 23 22 21 21 21 21 21 21 22 22 22 22 23 23 22 22 21 21 21 21 21 21 20 20 20 20 19 19 19 19 19 19 19 19 19 19 19 18 18 18 18 18 17 17 17 17 18 17 17 17 17 18 18 19 19 19 19 19 19 19 19 19 18 18 18 18 18 18 18 18 18 18 18 18 18 18 17 17 18
22 21 22 23 23 23 22 22 21 21 20 20 20 21 21 22 22 22 23 22 22 21 21 21 21 20 20 20 20 20 20 19 19 19 19 19 19 19 19 19 19 19 18 18 18 18 18 18 17 17 17 17 17 17 17 17 18 18 18 19 19 19 18 19 19 19 19 19 18 18 18 18 18 18 18 18 18 18 18 18 18 17 17 17 17
22 21 22 23 23 23 22 21 21 21 20 20 20 21 21 21 22 22 22 22 22 21 20 20 20 20 20 20 20 19 19 19 19 19 19 19 19 19 19 19 19 18 18 18 18 18 18 18 17 17 17 17 17 17 17 18 18 18 19 19 19 19 18 18 19 19 19 19 19 18 18 18 18 18 18 18 18 17 18 18 17 17 17 17 17
21 21 21 21 21 22 21 21 20 20 20 20 20 20 21 21 22 22 22 22 22 21 20 20 20 20 20 20 19 19 19 19 19 19 19 19 19 19 19 19 19 18 18 18 18 18 18 18 18 17 17 17 17 17 17 18 18 19 19 19 19 19 19 19 19 19 18 19 19 19 18 18 17 18 18 18 18 17 17 17 17 17 17 17 17
22 21 21 20 20 21 21 21 20 20 20 20 20 20 21 21 21 22 22 22 21 21 20 20 20 20 20 20 19 19 19 19 19 19 19 19 19 19 19 19 18 18 18 18 18 18 18 18 18 18 17 17 17 17 17 18 18 19 19 19 19 20 20 20 20 19 19 19 19 19 18 18 17 17 17 17 17 18 17 17 17 17 17 17 17
22 21 21 20 20 20 21 21 20 20 20 20 20 20 21 21 21 21 21 21 21 21 20 20 20 20 20 20 19 19 19 19 19 19 19 19 19 19 19 19 18 18 18 18 18 18 18 18 18 18 18 17 17 17 17 18 19 19 19 20 20 20 20 20 20 20 20 19 19 19 19 18 18 17 17 17 17 17 17 17 17 17 17 16 16
22 22 21 21 20 20 21 20 20 20 20 20 20 20 20 21 21 21 21 21 21 21 20 20 20 20 20 20 20 20 20 20 19 19 19 19 19 19 19 19 18 18 18 18 18 18 18 18 18 18 18 18 17 17 18 18 19 19 20 21 21 21 20 20 20 20 20 20 20 19 19 18 18 17 17 17 17 17 17 17 17 16 16 16 16
23 23 22 21 20 20 20 20 20 20 20 20 20 20 20 20 20 21 21 21 21 20 20 20 20 20 20 20 20 20 20 19 19 19 19 19 19 19 19 18 18 18 18 18 18 18 18 18 18 18 18 18 18 18 18 18 19 20 21 21 21 21 21 22 22 21 21 20 20 20 19 18 17 17 17 17 17 17 17 16 16 16 16 16 16
23 23 22 20 20 20 20 20 20 20 20 20 20 20 20 20 20 20 20 20 20 20 20 20 20 20 20 20 19 19 20 19 19 19 19 19 19 18 18 18 18 18 18 18 18 18 18 18 18 18 18 18 18 18 18 19 19 20 21 21 21 21 21 21 22 22 21 20 20 20 19 18 17 17 16 16 17 17 17 16 16 16 16 16 16
23 23 21 20 20 20 20 19 20 20 20 20 20 20 20 20 20 20 20 20 20 20 20 20 20 20 19 19 19 19 19 19 19 19 19 19 19 19 18 19 18 18 18 18 18 18 18 18 18 18 18 18 18 19 19 19 20 20 20 20 20 20 21 21 21 21 21 20 19 19 18 17 17 17 16 16 16 16 16 16 16 16 16 16 16
23 23 21 20 20 19 19 19 19 19 20 20 20 20 20 20 20 20 20 20 20 20 20 20 20 19 19 19 19 19 19 19 19 19 19 19 19 19 19 19 18 18 18 18 18 18 18 18 18 18 18 18 18 19 19 19 19 20 20 20 20 20 21 21 21 21 20 19 19 18 17 17 17 16 16 16 16 16 16 15 15 15 16 16 16
23 22 21 20 20 19 19 19 19 19 19 20 20 20 20 20 20 20 20 20 20 19 20 20 20 19 19 19 19 19 19 19 19 19 19 19 19 18 19 19 18 18 18 18 18 18 18 19 19 18 18 18 18 19 19 19 19 19 20 20 20 20 21 22 21 21 20 19 18 17 17 16 16 16 16 16 16 16 15 15 15 16 16 16 16
22 21 20 20 19 19 19 19 19 19 19 19 20 20 20 20 20 20 20 20 19 19 20 20 19 19 19 19 19 19 19 19 19 19 19 19 19 19 18 18 18 18 18 18 18 19 19 19 19 19 18 18 18 19 19 19 19 19 20 20 20 21 21 21 21 20 19 18 17 17 16 16 16 16 16 16 16 16 16 16 16 16 16 15 15
22 21 20 20 19 19 19 19 19 19 19 19 19 20 20 20 20 20 20 19 19 19 20 20 19 19 19 19 19 19 19 19 19 19 19 19 19 19 18 18 18 18 19 19 19 19 19 19 19 19 19 19 19 19 19 19 19 20 20 21 21 21 21 21 21 20 19 18 17 16 16 16 16 16 16 16 16 16 16 15 15 15 15 15 15
21 21 20 20 19 19 19 19 19 19 19 19 19 19 19 19 20 20 20 19 19 19 20 19 19 19 19 19 19 19 19 19 19 19 19 19 19 19 18 18 18 19 19 19 19 19 19 19 19 19 19 19 19 19 20 19 20 20 20 21 21 22 22 22 21 20 19 18 17 16 16 16 16 16 16 16 16 16 15 15 15 15 15 15 15
21 21 20 20 19 19 19 19 19 19 19 19 19 19 19 20 20 20 20 19 19 19 19 19 19 19 19 19 19 19 19 19 19 18 19 19 19 19 19 19 19 19 19 19 19 19 19 19 19 19 19 19 19 19 20 20 20 20 21 21 21 22 22 21 20 19 19 18 17 16 16 16 16 16 16 16 16 16 15 15 15 15 15 15 15
22 21 20 20 20 19 19 19 19 19 19 19 19 19 19 20 20 20 19 19 19 19 19 19 19 19 19 19 19 19 19 19 19 19 19 19 19 19 19 19 19 19 19 19 19 19 19 19 19 19 19 19 19 19 19 20 20 21 21 21 21 22 21 21 20 19 18 17 17 16 16 16 16 16 16 16 16 16 15 15 15 15 15 15 15
23 22 21 20 20 20 19 19 19 19 19 19 19 19 19 20 20 19 19 19 19 19 19 19 19 19 19 19 19 18 18 19 19 19 19 19 19 19 19 19 19 19 19 19 19 19 19 19 19 19 19 19 19 19 19 20 20 21 21 21 21 21 21 20 19 19 18 17 16 16 16 16 16 16 16 16 15 15 15 15 15 15 14 14 14
23 22 21 21 21 20 19 19 19 19 19 19 19 19 19 19 19 19 19 19 19 19 19 19 19 19 19 19 18 18 18 18 18 19 19 19 19 19 18 19 19 19 18 19 19 19 19 19 19 19 19 19 20 20 20 20 20 20 21 21 21 21 21 20 19 18 17 17 16 16 16 16 16 16 16 15 15 15 15 15 15 15 14 14 14
24 22 22 22 22 21 20 19 19 19 19 19 19 19 19 19 19 19 19 19 19 19 19 19 19 19 19 18 18 18 18 18 18 18 18 18 18 18 18 19 19 18 18 19 19 19 19 19 19 19 19 19 19 20 20 20 20 21 21 21 21 21 20 20 19 18 17 16 16 16 16 16 16 16 15 15 15 15 15 15 14 14 14 14 14
24 23 22 23 22 21 20 20 20 19 19 19 19 19 19 19 19 19 19 19 19 19 19 19 19 19 18 18 18 18 18 18 18 18 18 18 18 18 19 19 19 18 18 19 19 19 19 19 19 19 19 19 19 19 20 20 20 21 21 21 21 21 21 20 19 18 17 16 16 16 16 16 15 15 15 15 15 14 14 14 14 14 14 14 14
24 24 23 23 22 22 21 20 20 20 19 19 19 19 19 19 19 19 18 18 19 19 19 19 19 19 18 18 18 18 18 18 18 18 18 18 18 18 19 19 19 18 18 19 19 19 19 19 19 19 19 19 19 19 19 20 20 20 21 21 21 21 21 20 19 18 17 17 16 15 16 15 15 15 15 15 15 14 14 14 14 14 14 14 14
24 24 23 23 22 22 21 21 20 20 20 19 19 19 19 19 19 19 18 19 19 19 19 19 18 18 18 18 18 18 18 18 18 18 18 17 17 17 18 19 19 18 18 18 19 19 19 19 19 19 19 19 19 19 19 19 20 20 21 21 21 21 21 20 19 18 17 16 16 15 15 15 15 15 15 15 15 14 14 14 14 14 14 14 14
24 24 24 23 22 22 21 20 20 20 20 20 19 19 19 19 19 19 19 19 18 18 19 18 18 18 19 19 18 18 18 18 18 18 18 17 17 17 18 18 18 18 18 18 18 19 19 19 19 19 19 19 18 19 19 19 20 20 21 21 21 21 21 20 19 18 17 16 16 15 15 15 15 15 15 15 15 14 14 14 14 14 14 14 14
24 23 24 23 22 21 20 20 20 20 20 20 19 19 19 19 19 19 19 19 19 18 18 18 18 19 19 19 19 18 18 18 18 18 18 17 17 18 18 18 18 18 18 18 18 19 19 19 19 19 19 18 19 19 19 20 20 20 21 21 21 21 20 20 19 18 17 16 15 15 15 15 15 15 15 15 15 14 14 14 14 14 14 14 14
24 23 24 23 21 21 20 20 20 20 20 20 20 19 19 19 19 19 19 19 19 19 19 19 19 19 18 19 19 18 19 18 18 18 18 18 18 18 18 18 18 18 18 18 18 19 19 19 19 19 19 19 19 19 19 20 19 20 21 20 20 21 20 19 18 18 17 16 16 15 15 15 15 15 15 15 15 14 14 14 14 14 14 14 14
24 24 23 21 20 20 20 20 20 20 20 20 20 20 19 19 18 18 19 19 19 19 19 19 19 18 18 19 19 19 19 19 19 19 19 19 19 19 19 19 19 19 19 19 19 19 19 20 20 19 19 19 19 19 19 19 19 20 19 18 19 20 20 19 18 17 17 16 16 16 15 15 15 15 15 15 15 15 15 15 15 14 15 15 14
24 24 21 19 19 19 20 20 20 19 18 19 20 19 19 19 18 17 18 19 19 19 19 18 19 19 19 19 19 19 19 19 19 19 19 20 20 20 20 20 20 20 20 20 20 19 19 20 20 20 20 19 20 19 19 19 19 20 19 17 19 19 19 19 18 17 16 16 16 16 15 15 15 15 15 15 15 15 15 15 15 15 15 15 15
24 22 19 19 20 19 19 19 18 18 18 19 20 19 19 19 18 17 18 19 19 20 19 18 18 18 19 19 19 19 19 19 19 19 20 20 20 20 20 20 20 20 20 20 20 20 20 20 20 20 20 19 20 19 19 19 19 19 18 17 18 18 18 18 17 17 16 16 16 16 15 15 15 15 15 15 15 15 15 16 15 15 15 15 16
24 21 19 20 19 18 18 18 18 18 18 20 20 19 19 18 18 18 18 18 19 20 19 18 18 19 19 19 19 19 19 19 19 20 20 20 20 20 20 20 20 20 20 20 20 20 20 20 20 20 19 19 19 19 19 19 18 18 18 17 17 18 18 18 17 17 16 17 16 16 15 15 15 15 15 15 15 15 15 16 16 15 15 15 15
23 21 20 19 18 18 18 18 18 18 19 20 19 19 19 18 19 19 18 18 18 18 19 19 19 19 19 19 19 19 20 19 19 20 20 20 20 20 20 20 20 20 20 20 20 20 20 20 20 19 19 19 19 19 18 18 17 17 17 17 18 18 18 17 17 17 17 17 16 16 15 15 15 15 15 15 15 15 15 16 16 16 16 15 15
22 20 19 18 18 19 19 19 18 18 19 20 19 19 19 19 19 19 19 19 18 18 18 19 19 19 19 19 19 19 20 20 20 20 20 20 20 20 20 20 20 20 20 20 20 20 20 20 19 19 18 18 18 18 18 17 17 18 17 17 17 18 17 17 18 17 17 17 17 16 16 16 16 15 15 15 15 15 15 15 16 16 16 16 16
22 20 18 18 18 19 20 19 18 18 20 20 19 19 19 19 19 19 18 19 19 18 18 18 19 19 19 19 19 19 19 20 20 20 20 20 20 20 20 20 20 19 19 19 19 19 20 19 19 19 18 18 18 18 18 17 17 18 17 17 17 17 17 17 17 17 17 17 17 16 16 16 16 16 16 16 15 15 15 16 16 16 16 16 16
22 20 19 19 19 20 20 18 18 18 19 19 19 19 19 19 19 19 18 18 19 19 19 18 18 19 19 19 19 20 20 19 20 20 20 20 20 20 20 20 19 19 19 19 19 19 19 19 19 19 19 18 18 18 18 17 17 17 17 17 17 16 17 17 17 17 17 17 17 17 16 16 16 16 16 16 16 16 16 16 16 16 16 16 16
22 21 20 19 19 19 19 18 18 18 19 19 19 19 19 19 19 19 18 18 18 18 19 18 19 18 18 19 19 20 19 19 20 20 20 20 20 20 20 20 19 19 19 19 19 19 19 19 19 19 19 18 18 18 18 17 17 17 17 17 17 17 16 17 17 17 17 17 17 17 16 16 16 16 16 16 16 16 16 16 16 16 16 16 16
23 22 21 20 18 18 18 18 18 19 18 18 18 19 19 19 19 19 18 19 18 18 19 18 19 19 19 19 19 19 19 19 19 19 20 20 20 20 19 19 19 19 19 19 19 19 19 19 19 19 19 19 18 18 18 17 17 17 17 17 17 17 16 17 17 17 17 17 16 17 16 16 16 16 16 16 16 16 16 16 16 16 16 16 16
23 22 21 20 19 18 18 18 18 19 18 18 18 18 18 18 18 18 18 18 18 19 19 18 19 18 18 19 19 19 19 19 19 19 20 20 20 20 19 19 19 19 19 19 19 19 19 19 19 19 19 19 18 18 18 18 17 17 17 17 17 17 17 17 17 16 16 16 16 16 16 16 16 16 16 16 16 16 16 16 16 16 16 16 16
23 22 21 20 19 19 18 18 18 18 18 18 18 18 18 18 18 19 18 17 17 18 18 18 18 17 17 18 19 19 19 19 19 19 20 19 20 19 19 19 19 19 19 19 19 19 19 19 19 19 19 19 18 18 18 18 17 17 17 17 17 17 17 17 16 16 17 16 16 16 16 16 16 16 16 16 16 16 16 16 16 16 16 16 16
22 21 21 20 19 19 18 18 18 18 18 17 17 18 18 18 18 18 18 18 17 17 16 17 17 17 17 18 18 19 19 19 19 19 19 19 19 19 19 19 19 19 19 19 19 18 18 18 19 18 19 19 18 18 18 17 17 16 17 17 16 16 17 17 16 17 17 17 16 16 17 16 16 16 16 16 16 16 16 16 16 16 16 16 16
21 21 21 20 20 19 18 18 18 18 18 17 17 18 18 18 18 18 18 18 17 17 16 17 17 16 17 18 18 19 18 18 19 19 19 19 19 19 19 19 19 19 19 19 19 18 18 18 18 18 18 18 18 18 18 18 17 16 16 16 16 16 16 16 17 17 17 17 17 17 17 17 16 16 16 16 17 17 16 16 16 16 16 16 15
21 21 21 20 19 19 18 18 18 18 18 18 17 18 18 18 18 18 18 18 17 17 17 17 17 17 18 18 18 19 18 16 18 19 19 19 19 19 19 19 19 19 19 19 19 18 18 18 18 18 18 18 18 18 18 18 17 17 16 16 16 16 16 16 17 17 17 17 17 17 17 17 17 17 17 17 17 17 17 16 16 16 16 15 15
21 21 20 20 19 19 19 18 18 18 18 18 17 18 17 17 18 18 18 18 17 17 18 17 17 18 18 18 18 19 18 16 17 19 19 19 19 18 18 18 19 19 19 19 19 18 18 18 18 18 18 18 18 18 18 18 18 17 17 16 16 16 15 16 16 16 17 17 17 17 17 17 17 17 17 17 17 17 17 17 16 16 16 15 15
21 21 20 20 19 19 19 18 18 18 17 17 17 17 17 17 18 18 18 18 17 17 18 18 18 18 18 19 18 19 18 17 17 19 19 19 19 18 18 18 18 19 19 18 18 18 18 18 18 18 18 18 17 18 18 18 18 18 18 18 17 17 16 16 16 16 17 17 16 17 17 17 17 17 17 18 18 18 17 17 16 16 16 16 15
20 21 20 19 19 19 19 18 18 18 17 17 17 17 17 16 17 17 17 17 16 16 18 18 18 18 18 18 19 19 19 18 18 19 19 18 18 18 18 18 18 18 18 18 18 18 18 18 18 18 18 18 18 18 17 18 18 18 18 18 18 18 17 17 17 16 16 17 17 17 17 17 18 18 18 18 18 18 17 17 16 16 16 16 15
19 19 19 18 19 19 19 18 18 18 17 17 17 17 17 16 16 17 16 16 16 17 18 18 18 18 18 18 19 19 19 18 18 19 19 18 18 18 18 18 18 18 18 18 18 18 18 18 19 19 18 18 18 17 17 17 18 18 18 18 18 18 18 17 17 16 16 17 18 18 18 18 18 18 19 19 18 17 17 17 16 16 16 15 15
18 18 17 17 19 19 19 18 18 18 17 17 16 17 17 16 17 17 16 16 16 17 17 18 18 18 18 18 18 18 18 18 18 18 19 18 18 18 18 18 18 18 18 19 19 19 19 18 19 19 18 18 18 17 17 17 18 18 18 18 18 19 19 18 18 17 17 17 18 18 18 18 19 19 19 18 18 18 17 17 17 17 16 16 15
17 16 16 18 19 18 18 18 18 18 17 17 17 17 17 16 16 17 16 16 17 17 17 17 17 18 18 18 18 18 18 18 18 18 19 18 18 18 18 18 18 18 18 19 19 19 19 18 18 18 18 18 18 17 17 17 18 18 18 18 18 18 19 19 19 18 17 17 17 18 18 19 19 19 19 18 18 18 17 17 17 17 16 16 15
16 16 17 20 18 17 18 17 18 18 18 18 17 17 17 17 17 17 17 17 17 17 17 17 17 18 18 18 18 18 18 19 19 18 18 18 18 18 18 18 18 18 18 19 19 19 19 19 18 18 18 18 18 18 17 17 18 18 18 18 18 18 18 19 19 19 18 17 17 17 18 18 18 18 18 18 18 18 18 18 17 17 16 16 15
16 16 19 21 18 16 17 17 17 18 17 17 17 17 17 17 17 17 17 17 17 17 17 17 17 18 18 18 18 19 19 19 19 19 18 18 18 18 18 18 18 18 19 19 19 19 19 19 19 18 18 18 18 18 18 17 17 18 18 18 18 18 18 18 18 18 18 18 18 17 17 17 17 17 18 18 18 18 18 18 18 17 17 16 15
15 16 19 20 17 16 16 17 17 18 17 16 17 17 17 16 17 17 17 17 17 17 17 17 17 17 18 18 18 19 19 19 19 19 19 18 18 18 18 18 18 18 19 19 19 19 19 19 18 18 18 17 17 18 18 18 17 18 18 18 18 18 17 17 18 18 18 18 18 17 17 18 17 17 18 18 18 18 18 18 18 17 17 16 15
Height
760 760 761 762 765 766 769 770 772 773 775 777 778 780 782 784 785 786 787 788 790 792 793 794 796 797 798 799 801 801 803 805 806 807 807 809 809 810 811 812 813 813 814 814 814 814 815 815 815 816 816 816 816 816 816 816 816 816 816 816 817 817 818 818 818 818 818 819 819 820 820 820 821 822 822 822 822 822 822 823 823 823 824 824 824
760 761 762 764 766 767 770 771 773 774 776 778 779 782 783 785 786 787 788 789 791 793 794 795 797 798 799 800 802 803 805 806 807 808 809 810 810 812 812 814 814 815 815 816 816 816 816 816 817 817 818 818 818 818 818 818 817 818 818 818 819 819 820 820 820 820 820 820 821 821 821 821 822 823 824 824 824 824 824 825 825 825 826 826 826
759 762 763 765 767 768 770 772 774 775 777 779 781 783 784 786 787 789 789 791 792 794 796 796 798 799 800 802 803 804 806 807 808 809 810 811 812 813 814 815 816 817 817 817 818 818 818 818 819 819 819 819 819 820 819 819 819 819 819 819 820 821 822 822 822 822 822 822 823 823 823 822 823 825 826 826 825 825 826 826 827 827 827 828 827
760 762 764 766 768 769 771 773 775 776 779 780 782 784 786 788 789 790 791 792 793 795 797 798 799 800 802 803 804 806 807 808 809 811 812 812 813 815 816 817 817 818 819 819 819 819 819 820 820 820 821 820 821 821 821 821 820 820 820 821 821 822 823 823 824 823 824 824 825 825 826 826 826 827 827 827 827 828 828 828 828 829 829 829 828
762 762 765 767 769 770 772 774 776 777 779 781 783 785 787 788 790 791 792 793 794 796 798 799 800 801 803 804 805 807 808 809 811 812 813 814 815 816 817 818 819 819 820 821 821 821 821 822 822 822 822 822 822 822 822 822 822 821 821 822 822 823 823 824 825 825 825 825 826 826 828 828 829 829 828 829 829 830 830 830 830 830 830 830 829
763 763 766 768 770 771 773 775 777 778 780 782 784 786 788 789 791 792 793 794 796 797 799 801 802 803 804 805 806 807 809 810 811 813 814 815 816 818 819 819 820 821 821 822 822 822 823 823 823 823 823 823 823 823 823 823 823 822 823 823 824 824 825 826 826 826 826 826 827 827 828 829 830 830 830 830 830 831 831 831 831 831 831 831 830
764 766 768 769 771 772 774 775 777 779 781 783 785 787 789 790 792 793 794 795 797 798 800 802 803 804 805 806 807 809 810 811 812 813 815 816 817 819 820 820 821 822 822 823 823 824 824 825 825 825 825 825 824 824 824 824 824 824 824 824 825 825 826 827 827 828 828 829 829 829 829 829 830 831 832 832 832 832 831 832 831 832 832 832 832
765 768 769 770 772 773 775 776 778 780 782 785 786 788 790 791 793 794 795 797 798 800 802 803 804 805 806 808 809 810 811 812 813 814 816 817 818 820 820 821 822 823 823 824 825 825 825 826 826 826 826 826 825 825 825 825 825 825 825 825 826 826 827 828 828 829 830 831 831 830 830 830 831 832 833 833 833 833 832 831 831 832 833 833 833
767 768 770 772 772 774 775 777 779 781 783 786 787 789 791 792 794 795 797 798 799 801 803 804 806 807 808 809 810 811 812 813 814 816 817 818 820 820 821 822 823 824 824 825 825 826 826 827 827 827 827 827 827 826 826 826 826 826 826 826 826 827 827 828 828 829 831 831 830 831 831 831 832 833 834 834 834 834 833 832 832 833 834 834 834
767 769 771 773 774 775 776 778 780 782 785 787 788 790 792 793 795 796 798 799 801 802 804 805 806 808 809 810 811 812 813 814 815 817 818 819 820 821 822 823 824 824 825 826 826 827 827 828 828 827 828 828 828 827 827 827 827 827 827 827 827 828 828 829 829 830 832 831 831 831 831 832 833 834 835 835 835 835 835 834 835 835 836 836 836
768 770 772 773 775 776 778 780 781 784 786 787 790 791 793 794 796 797 799 801 802 803 805 806 807 809 810 811 812 813 814 815 817 818 819 820 821 822 823 824 824 825 826 827 827 828 828 828 828 828 829 829 829 828 828 828 828 828 828 828 828 829 829 829 830 832 833 832 833 833 833 833 834 836 836 837 836 836 836 836 837 837 837 838 838
770 772 773 775 776 778 780 781 783 785 786 789 790 792 794 795 797 799 800 802 803 804 805 807 808 810 811 812 813 814 815 816 818 819 820 820 821 823 823 824 825 826 827 827 828 829 829 829 829 829 830 830 830 829 829 829 829 830 829 830 829 829 829 830 831 833 834 834 834 834 835 835 836 837 837 838 837 837 837 838 838 838 839 839 839
771 773 774 776 778 780 781 783 784 786 787 790 791 793 795 796 798 800 801 803 804 805 806 808 809 811 812 813 814 815 816 817 818 819 820 821 822 823 824 825 825 826 827 828 829 829 830 830 830 830 830 831 831 831 831 831 831 831 831 831 830 830 830 831 833 834 835 835 836 836 836 837 838 838 839 839 838 839 839 839 839 840 840 840 840
773 774 776 778 780 782 782 784 786 787 789 790 793 794 796 798 799 801 802 803 805 806 807 809 810 811 812 813 815 815 817 818 819 820 821 822 823 824 825 825 826 827 828 829 830 830 831 830 831 831 831 832 832 832 832 832 832 832 832 832 832 832 831 832 834 836 836 837 837 838 838 838 839 839 840 840 840 840 840 840 841 841 841 841 841
773 774 777 779 781 783 784 786 786 789 790 791 794 795 797 799 800 802 803 805 806 807 808 810 811 812 813 814 815 816 818 818 819 820 822 822 823 825 825 826 826 827 828 829 830 831 831 831 832 832 832 833 833 834 833 833 833 833 833 833 833 833 833 833 835 836 837 838 838 839 839 839 840 840 840 841 841 841 841 842 842 842 842 842 842
774 775 778 780 781 784 785 787 788 790 791 793 794 796 798 799 801 802 804 805 806 808 809 810 811 813 814 815 816 817 818 819 820 821 822 823 824 825 826 826 827 828 829 830 831 831 832 832 832 833 833 834 834 835 835 835 835 835 835 834 834 834 835 835 836 837 838 839 839 840 840 841 841 841 842 842 842 842 843 843 843 843 843 844 843
774 776 778 780 782 784 786 787 789 790 791 793 795 796 799 800 801 802 804 805 806 808 809 811 812 813 814 815 816 817 818 819 820 821 823 824 824 826 826 827 827 829 830 831 832 832 833 833 833 834 835 835 836 836 836 837 836 836 836 836 835 836 836 836 837 838 838 839 840 841 841 842 843 843 843 843 843 843 844 843 844 844 844 845 845
775 776 778 781 782 784 786 787 789 790 792 793 796 797 798 800 801 802 804 805 807 809 810 811 812 813 815 816 817 818 819 820 821 822 823 824 825 826 827 828 828 829 831 831 832 833 833 834 835 835 836 836 837 836 837 838 838 838 838 837 837 838 838 838 839 839 840 840 840 842 842 843 844 844 844 844 845 845 845 845 845 845 845 845 846
776 777 779 781 782 784 785 786 788 790 792 794 796 797 799 800 801 803 804 806 808 809 811 812 813 814 816 817 818 819 820 821 822 822 823 824 825 826 827 828 829 830 831 832 833 834 834 835 836 836 837 837 837 837 838 838 839 839 839 839 839 839 840 840 840 840 841 841 841 842 843 844 844 845 845 845 846 846 846 846 846 846 846 846 847
776 778 780 782 782 784 784 786 788 789 792 794 796 797 799 800 802 804 805 807 809 811 812 813 814 815 816 817 819 820 821 822 823 823 823 824 825 826 827 829 830 831 832 833 834 834 835 836 836 837 837 838 838 838 838 839 840 840 840 840 840 840 841 841 841 842 842 842 843 843 844 845 845 846 846 847 847 847 847 847 847 847 847 847 847
775 777 779 781 782 783 783 785 787 790 792 793 795 796 798 800 802 804 806 808 810 812 813 814 815 816 817 818 819 820 821 822 823 823 824 825 825 826 827 829 830 831 833 834 835 835 836 836 836 837 838 838 838 838 839 839 840 840 841 840 840 841 841 842 842 843 843 844 844 844 845 846 846 847 847 847 848 848 848 848 849 848 848 848 848
774 776 778 780 780 782 783 785 788 790 791 793 795 796 798 799 801 804 806 809 810 813 814 815 817 817 818 819 820 820 821 822 823 823 824 825 826 827 828 829 831 832 833 834 835 836 836 836 837 837 838 838 838 839 839 840 840 841 841 841 841 842 843 842 843 844 845 845 846 846 847 847 847 848 848 848 849 849 849 849 850 850 850 850 850
772 775 777 778 779 781 782 785 787 789 791 792 794 796 798 799 801 803 806 809 811 813 815 817 817 818 819 819 820 820 821 822 823 824 824 825 826 827 828 830 831 832 833 834 835 836 836 837 837 838 838 839 839 840 840 841 841 842 842 842 842 843 844 843 844 845 846 847 847 848 849 849 849 849 849 849 849 850 850 851 851 851 851 851 851
771 773 775 777 778 780 782 784 786 788 790 792 793 795 796 798 800 803 806 808 811 813 815 817 817 818 819 819 820 821 822 822 823 824 825 826 827 828 829 830 831 832 833 834 835 836 836 837 837 838 838 839 840 841 842 842 842 843 843 843 844 844 845 845 845 846 847 849 849 850 850 850 850 850 850 850 851 851 851 851 851 852 852 853 853
770 772 773 775 777 778 781 783 785 787 790 791 792 794 795 797 799 802 805 807 809 811 814 816 816 817 818 819 820 821 822 823 824 824 825 826 827 828 829 830 831 832 833 834 835 836 836 837 837 838 839 839 841 842 843 844 844 844 844 844 845 845 846 847 846 847 848 850 851 851 851 852 852 852 852 852 852 852 852 852 852 852 853 853 853
769 771 772 774 775 777 780 783 785 787 789 791 792 794 796 798 799 801 803 804 806 809 812 814 816 817 818 819 819 821 822 823 824 825 826 826 827 828 829 830 831 832 833 834 835 836 837 837 838 838 839 840 841 842 843 844 844 844 845 845 846 846 847 847 847 848 849 851 852 852 852 853 853 853 854 854 854 853 853 853 853 853 853 854 854
768 770 771 773 775 777 781 782 785 787 789 792 793 795 798 800 800 801 801 802 805 808 811 814 816 817 817 818 819 821 822 823 824 824 826 826 827 828 829 830 831 832 832 833 835 836 837 837 838 839 840 841 842 843 844 844 844 844 845 845 846 846 847 848 848 849 851 852 853 853 853 853 854 855 855 855 855 855 855 855 855 855 855 855 855
768 769 771 774 777 780 781 782 785 787 790 793 795 797 799 801 801 801 801 801 803 807 810 813 816 816 817 818 819 820 821 823 823 824 825 827 828 828 830 831 831 832 832 833 835 835 837 837 838 839 840 841 842 843 844 844 845 845 844 846 847 847 847 848 849 850 852 853 854 854 854 854 855 855 856 856 856 856 856 857 857 856 856 856 856
767 769 772 776 779 780 781 783 785 787 791 794 797 799 800 801 802 803 802 802 803 805 809 813 815 816 816 817 818 820 821 823 823 824 825 827 828 829 830 832 832 833 833 834 835 835 836 837 838 839 840 840 841 843 843 843 844 845 846 848 849 847 848 849 850 851 853 854 854 855 855 855 856 856 857 857 857 857 858 859 858 858 858 858 858
766 769 773 777 777 779 783 785 786 789 793 796 798 799 799 799 801 803 804 804 804 804 808 812 814 815 816 817 818 820 821 823 824 824 825 827 828 829 830 832 833 833 833 834 834 835 836 837 838 838 839 840 841 842 843 843 844 846 848 850 851 849 848 850 851 852 853 854 855 855 856 856 857 857 857 858 858 858 859 860 860 859 859 859 859
766 769 772 775 777 781 785 787 788 791 793 794 796 798 798 799 801 803 805 806 806 806 808 812 814 815 816 817 818 819 821 822 824 825 826 827 828 829 830 832 832 833 833 834 835 836 836 837 837 837 838 839 841 842 843 844 845 847 849 851 852 850 849 850 852 852 853 854 855 856 857 857 858 858 858 859 859 859 860 861 860 860 861 861 861
766 769 772 775 778 781 783 786 788 789 790 791 794 796 797 798 800 802 804 806 808 809 810 811 813 814 815 817 818 819 820 821 823 825 826 827 828 829 830 831 832 832 833 834 835 836 836 837 837 838 839 839 840 842 844 845 848 848 849 851 851 850 850 851 852 852 853 854 856 856 857 858 858 859 859 859 860 860 861 861 861 861 861 861 861
766 769 772 775 777 777 779 783 786 788 788 790 793 794 795 797 799 801 803 805 807 809 810 811 812 814 816 817 818 819 820 821 823 825 826 828 829 830 831 831 832 832 833 834 835 835 836 837 838 839 840 840 840 842 845 847 848 847 849 851 851 851 851 852 853 852 854 855 856 857 857 858 859 859 860 860 860 861 861 861 861 861 861 862 862
766 769 772 773 775 775 777 781 784 786 787 789 791 792 794 796 798 800 802 803 806 808 809 811 813 814 816 818 818 819 819 820 823 825 826 828 829 830 831 831 832 832 833 834 835 836 836 836 837 839 840 841 842 844 846 847 848 847 849 851 852 853 852 853 854 854 855 856 856 857 858 859 859 860 860 861 861 861 862 862 862 862 862 862 862
764 768 771 773 775 775 777 781 783 785 786 788 790 792 794 795 797 800 801 802 805 808 809 811 813 814 816 817 818 817 818 820 823 825 826 827 828 829 830 831 831 832 833 834 835 836 836 836 837 839 840 841 843 844 845 848 849 849 850 851 853 854 853 854 854 855 855 855 856 857 858 859 860 860 861 861 862 862 863 863 863 863 862 863 863
764 767 770 772 774 776 778 780 782 785 786 788 790 792 794 795 798 800 800 801 804 807 809 811 812 813 815 816 817 817 819 822 824 824 825 826 827 829 830 830 831 832 833 834 835 835 835 836 837 838 840 841 843 844 846 848 849 850 851 851 852 853 853 853 854 855 855 856 857 858 858 859 860 861 861 862 862 862 863 863 863 863 863 863 863
763 766 769 771 774 776 778 779 781 785 787 789 790 792 793 795 797 800 799 799 802 806 809 811 812 812 814 816 817 819 821 822 823 823 824 825 826 828 829 830 831 832 833 834 835 835 835 836 837 838 839 841 843 844 846 848 850 851 851 852 852 853 854 854 854 855 855 856 857 858 859 860 860 861 862 862 863 863 863 864 864 864 864 864 863
762 764 767 770 773 776 778 779 782 785 788 790 791 792 793 794 797 800 800 800 803 806 808 810 812 813 815 816 817 819 821 821 821 822 823 824 826 827 828 829 831 832 833 834 835 835 835 836 837 838 839 841 843 844 846 848 850 851 851 852 853 853 854 854 855 855 856 856 857 858 859 860 861 861 862 863 863 864 864 864 864 864 864 864 864
761 764 767 770 773 775 777 780 783 785 788 790 792 793 794 795 798 800 801 804 806 808 810 810 813 817 819 819 818 819 820 819 819 821 822 824 825 827 828 829 830 831 833 834 835 835 835 836 837 838 840 841 843 844 846 848 849 851 852 852 853 854 855 855 855 856 857 857 857 859 860 860 861 862 863 863 864 865 864 865 865 865 865 865 865
760 763 766 769 772 775 777 780 782 785 787 790 791 793 795 796 797 799 801 804 807 810 813 814 815 820 821 820 820 820 820 819 818 821 823 824 825 826 827 829 830 831 832 833 834 834 835 836 837 838 840 841 843 844 846 848 849 852 853 853 854 855 856 856 857 857 858 858 859 859 860 861 862 862 863 864 865 865 865 866 866 866 866 866 866
760 762 765 769 771 774 777 779 781 784 786 789 791 793 794 795 795 798 800 803 806 809 811 813 816 820 820 820 819 820 821 821 819 821 823 824 824 826 827 829 830 830 832 832 833 834 834 836 837 838 840 841 843 845 847 847 849 852 853 854 855 856 857 858 858 858 858 859 860 860 860 861 862 863 864 864 865 866 866 867 867 867 867 867 867
758 761 765 768 771 773 776 778 781 783 786 788 790 792 794 794 795 798 800 802 805 806 807 810 814 818 819 818 818 818 820 822 821 820 822 823 823 825 826 828 830 830 831 832 833 833 834 835 837 838 840 842 843 845 846 847 849 851 852 854 856 857 859 859 859 859 859 859 860 861 861 862 863 863 864 864 865 866 867 867 868 868 868 868 868
758 761 765 768 771 773 776 779 781 784 786 788 790 792 794 795 796 798 800 801 803 804 806 809 812 815 817 817 817 816 818 822 822 820 821 822 823 824 826 827 829 830 830 831 832 833 834 835 837 838 840 842 843 845 846 847 849 850 852 854 856 858 860 860 860 860 860 860 860 861 862 862 863 864 864 864 865 866 867 868 869 869 869 869 869
759 761 765 769 771 773 776 779 782 785 787 789 791 793 794 795 796 798 799 801 803 804 806 808 810 812 814 814 815 815 817 819 820 820 820 821 822 823 825 827 828 829 830 831 831 833 834 835 837 838 840 842 844 845 847 847 848 850 851 853 854 856 860 860 860 861 861 860 861 861 862 862 863 864 864 864 865 866 868 869 869 869 870 870 870
757 760 766 769 771 773 775 778 781 784 787 789 792 794 795 796 797 798 800 801 804 805 805 807 809 810 811 812 813 814 816 818 819 820 820 821 822 823 824 826 827 828 830 830 831 833 834 836 837 839 840 841 843 844 846 847 848 849 850 851 854 856 857 858 859 861 861 861 862 862 862 863 862 863 864 865 866 867 868 869 870 870 870 870 870
753 760 769 772 771 772 772 774 777 780 783 786 789 793 795 797 799 800 800 801 804 804 804 805 807 809 810 811 813 814 815 817 819 819 819 820 821 822 823 825 826 827 829 830 831 833 834 836 837 838 840 841 842 844 845 846 848 849 849 851 852 853 854 855 857 860 862 861 861 862 862 863 862 863 864 865 865 867 868 869 870 870 870 871 871
751 761 772 774 771 769 768 770 772 774 778 781 784 787 790 793 798 800 801 803 804 804 804 805 807 808 810 812 813 814 815 817 818 819 819 820 821 822 823 824 825 826 828 829 830 832 834 836 837 838 839 840 841 842 844 846 847 848 850 851 851 851 852 854 855 858 861 862 862 862 862 862 862 863 864 864 865 867 868 869 870 870 871 871 871
754 763 773 774 771 768 767 767 768 770 772 775 778 779 780 784 791 796 799 803 805 805 805 805 806 808 810 811 812 814 815 816 817 818 818 819 820 821 822 823 824 825 827 828 829 831 833 835 836 837 838 839 840 841 842 844 846 848 849 850 851 852 853 853 854 855 857 860 862 862 862 862 862 862 864 865 866 867 868 869 870 870 871 871 871
755 760 766 769 769 768 767 766 766 767 768 769 771 774 778 781 784 788 792 799 804 805 805 805 806 807 809 810 812 814 815 816 817 817 818 818 819 820 822 822 823 824 826 827 829 830 832 834 835 836 837 838 839 840 842 844 846 847 848 850 852 852 853 853 854 854 855 859 861 862 862 862 863 864 865 866 867 868 868 869 870 870 871 871 871
753 755 758 760 765 767 766 765 764 765 765 766 767 770 777 781 783 785 787 792 799 803 805 805 805 806 808 810 812 813 814 815 816 817 817 818 819 820 821 822 823 824 825 827 828 829 831 833 834 835 836 837 839 839 841 844 846 847 848 850 851 851 853 854 854 855 855 857 859 861 862 863 864 865 866 867 868 868 869 869 870 871 871 871 872
754 755 756 759 763 765 763 762 761 761 763 765 767 767 771 777 781 785 786 788 793 799 803 804 804 805 807 809 811 812 813 814 815 816 817 818 819 820 821 822 823 824 825 826 827 829 830 831 833 835 836 838 839 840 842 843 845 847 848 848 849 850 852 853 854 854 855 856 858 860 862 863 864 866 867 868 868 869 869 869 870 871 871 871 872
Wind_Speed
18 21 25 23 22 20 21 22 23 22 22 23 23 23 23 23 22 22 23 22 22 22 21 19 18 18 18 17 16 16 15 15 15 15 15 15 15 15 15 15 15 15 15 15 15 16 16 17 17 16 16 16 17 15 14 17 18 19 20 20 21 23 23 23 23 23 24 25 24 24 24 25 24 22 21 22 22 22 22 22 23 22 21 19 19
20 21 23 22 22 20 21 23 23 23 23 23 23 24 24 23 23 23 23 23 22 22 21 19 18 18 18 18 16 16 16 15 15 15 15 15 14 14 13 13 14 14 14 15 16 16 16 17 16 16 16 16 16 15 14 15 16 17 19 21 21 22 22 24 25 25 25 25 25 25 25 26 24 22 21 22 22 23 22 23 22 22 21 19 19
22 21 22 21 21 20 21 23 24 23 23 22 22 24 24 24 23 23 23 23 23 23 21 20 18 18 18 17 17 16 16 16 15 15 14 13 13 13 13 13 14 14 14 15 16 16 16 16 16 16 16 16 15 15 14 14 16 17 19 21 20 20 21 23 24 24 24 24 25 25 25 25 23 21 20 22 22 22 22 21 21 20 20 19 19
22 21 21 20 20 20 21 23 23 23 23 22 22 24 24 24 23 23 23 23 24 23 21 19 18 17 17 17 17 16 16 16 16 15 13 13 13 13 14 14 13 13 14 14 15 16 16 16 16 16 16 16 14 13 13 15 18 20 20 19 19 18 19 19 21 22 21 21 23 24 24 23 22 20 19 21 21 21 21 20 19 18 18 18 18
22 21 20 19 18 19 21 22 23 23 22 22 23 24 24 24 24 23 23 24 24 23 21 19 17 17 17 17 17 17 17 16 16 16 13 12 13 14 15 13 13 13 13 13 14 15 15 16 16 16 16 16 14 13 13 15 18 20 19 18 18 18 18 17 18 20 20 20 21 21 22 21 20 19 18 18 18 18 19 19 18 18 17 17 17
20 20 20 18 17 19 21 22 23 23 22 23 24 24 25 24 24 23 23 24 24 23 20 18 17 17 18 18 17 17 17 16 17 16 13 12 14 15 14 13 13 13 13 13 13 13 14 14 15 16 16 15 14 13 12 15 18 18 16 16 16 16 15 14 15 16 16 17 19 19 19 19 19 18 17 17 17 15 16 18 19 18 17 16 16
19 19 19 18 17 19 21 22 23 23 23 24 24 24 25 25 24 23 24 25 24 22 19 17 17 18 19 18 17 16 15 15 17 17 13 13 14 15 14 12 13 13 12 12 12 12 12 13 14 14 14 14 14 13 12 13 16 17 15 16 15 14 11 9 8 7 8 9 12 17 19 17 18 18 16 16 17 17 15 16 18 19 18 17 16
19 18 18 18 17 20 22 21 23 23 23 24 24 24 25 25 24 24 24 25 24 21 17 16 17 18 18 17 16 15 14 16 17 16 14 13 14 15 13 12 13 13 12 11 11 11 12 12 12 13 13 14 13 12 11 12 16 17 16 17 15 14 12 11 10 6 7 9 11 15 17 16 16 15 15 15 17 18 16 15 16 17 18 17 17
18 18 18 16 16 21 22 22 23 23 23 23 24 24 24 25 24 24 25 26 23 19 17 17 17 18 18 17 16 16 16 17 17 16 14 14 14 14 13 13 13 12 11 11 10 10 11 11 11 11 12 12 12 12 10 11 15 18 18 18 16 16 17 17 18 15 15 17 17 18 18 18 16 14 13 14 15 15 15 16 16 17 18 17 17
19 19 18 16 17 22 22 23 23 22 23 24 24 23 24 24 24 25 25 24 21 18 18 17 18 18 18 18 17 17 17 18 18 17 16 15 14 13 14 14 13 12 11 10 10 11 11 10 10 10 11 11 11 12 12 13 17 19 18 16 14 14 14 14 16 17 16 17 18 18 17 15 15 14 12 12 13 14 16 17 18 18 17 17 17
20 20 18 17 19 23 23 23 23 22 24 24 24 23 23 23 24 25 24 22 19 17 18 18 19 19 19 18 17 16 17 19 19 17 16 15 14 12 13 14 13 12 10 10 10 10 10 9 9 9 9 10 10 13 15 17 18 18 16 12 10 9 10 12 15 16 16 17 18 18 16 14 15 14 13 14 14 16 17 17 17 17 17 17 17
20 19 18 19 21 23 23 23 23 24 24 24 23 22 22 22 23 23 22 20 18 17 18 18 19 19 17 16 16 16 17 19 19 17 16 15 13 12 13 14 13 12 11 11 10 9 9 8 7 7 8 9 10 15 18 18 18 16 13 9 8 10 12 14 16 17 17 17 17 17 17 17 16 15 15 15 15 15 15 16 16 17 17 17 17
19 18 18 19 21 23 23 23 24 24 24 23 22 22 22 22 22 22 21 19 17 18 18 19 19 18 17 16 15 15 17 19 19 17 17 15 13 12 13 13 13 12 11 10 9 8 7 6 6 6 8 9 10 14 16 16 15 13 11 10 10 12 14 16 16 17 18 17 17 17 18 17 16 15 15 15 15 15 16 16 16 17 16 16 17
19 19 20 19 20 22 23 24 24 24 23 22 22 22 22 23 23 21 19 18 17 18 19 19 19 18 17 16 16 16 16 18 18 17 16 15 12 11 12 12 12 12 11 9 8 7 7 6 6 7 8 10 11 13 15 14 14 12 11 11 11 11 12 15 16 17 17 17 18 18 17 16 15 14 15 15 16 16 16 16 16 16 15 15 16
20 21 21 19 19 21 23 24 23 23 22 22 23 23 23 23 22 20 19 19 19 19 19 19 19 18 18 17 17 16 15 17 17 15 15 14 12 11 12 12 12 11 10 8 7 7 7 7 8 9 10 11 11 13 15 15 13 12 12 12 13 13 13 15 15 15 16 16 17 17 16 15 14 14 15 15 15 15 16 16 16 15 15 16 16
22 22 21 20 19 20 21 22 22 22 22 23 24 24 24 22 21 20 20 21 20 19 18 18 18 18 18 17 17 16 15 16 15 14 14 13 11 11 11 11 10 9 7 6 7 7 7 7 9 10 11 12 12 13 14 14 13 13 14 15 16 16 16 17 15 15 15 16 16 16 16 16 15 15 15 15 15 15 15 15 16 15 15 16 16
23 23 21 22 21 20 19 21 21 21 22 23 24 24 23 21 21 22 22 21 19 18 17 18 18 18 18 18 17 15 15 15 15 14 14 13 11 11 10 8 7 7 6 6 8 8 7 7 9 11 12 12 13 13 14 14 14 16 18 19 19 19 18 17 17 17 15 15 15 15 16 16 16 15 15 15 15 15 15 14 15 16 16 16 16
23 23 23 22 21 21 20 21 21 20 22 23 23 23 22 22 22 22 21 20 18 17 17 18 19 18 18 18 17 15 15 15 15 14 13 13 11 10 9 6 5 6 7 7 9 9 7 8 10 12 12 13 15 17 17 18 17 18 20 21 20 19 19 17 16 15 14 13 14 15 15 15 14 14 15 14 14 14 14 14 15 15 15 15 15
21 22 22 22 21 21 21 22 21 21 22 22 21 22 22 22 22 21 19 18 17 17 18 19 19 19 19 18 16 15 15 15 14 13 13 12 12 11 10 8 6 6 8 8 9 9 8 9 10 12 12 13 18 20 20 19 18 17 17 17 17 17 17 16 16 15 14 13 12 13 14 14 14 14 14 14 14 14 14 14 14 14 14 14 14
21 22 21 20 21 21 22 23 22 22 22 22 21 21 22 22 21 19 17 16 16 17 19 19 18 18 17 17 16 14 15 14 14 14 13 12 12 12 12 11 8 7 9 9 9 9 8 9 10 12 12 13 18 20 19 18 16 14 13 13 14 17 16 15 15 14 13 12 11 12 13 14 13 13 13 13 13 13 14 14 14 14 14 14 14
21 23 22 21 23 22 22 23 22 23 23 23 23 22 22 22 21 18 16 16 16 17 17 17 17 17 16 17 16 14 13 12 13 14 13 12 11 11 12 12 10 8 9 9 9 9 8 9 10 12 12 13 17 18 18 17 16 14 14 13 13 15 15 14 15 15 13 12 11 13 13 12 12 12 12 13 13 13 13 13 13 13 13 14 14
19 22 23 22 24 23 23 23 23 23 24 24 24 24 24 22 21 18 17 17 17 17 17 17 17 16 16 15 15 15 13 12 13 14 13 13 12 11 10 11 10 9 9 10 10 9 9 8 9 11 12 12 15 17 16 15 15 14 13 13 13 13 15 16 17 15 13 13 13 13 12 11 11 11 11 12 12 12 12 13 14 13 13 14 14
18 20 23 23 23 24 24 24 25 25 24 23 23 25 25 23 21 19 19 19 18 18 18 17 16 16 16 14 15 14 13 14 13 13 13 13 12 11 9 9 10 10 9 10 11 10 9 8 8 10 12 12 13 13 13 13 13 12 12 12 11 11 15 16 16 15 13 13 14 14 12 11 11 10 11 11 12 12 13 13 13 12 13 13 14
19 20 23 24 23 24 25 25 27 27 25 22 23 26 25 23 22 21 21 20 19 19 18 18 16 17 16 15 15 14 14 15 13 13 13 13 12 11 9 8 9 10 10 11 12 11 10 9 8 9 13 12 11 9 8 8 7 7 9 10 9 10 13 13 15 15 14 14 15 14 12 10 10 10 11 12 12 12 11 11 11 12 13 13 13
20 19 22 24 23 25 26 26 28 28 25 23 24 26 25 24 24 22 22 22 22 21 20 19 18 18 16 15 16 14 14 15 13 14 13 12 12 10 9 8 9 10 11 12 12 12 12 10 9 11 14 12 11 10 7 6 3 1 4 7 8 11 13 13 15 16 12 12 14 13 12 11 10 11 11 12 12 11 10 10 11 11 12 12 11
19 18 21 23 24 27 27 27 29 29 24 23 24 25 24 23 24 25 25 25 24 22 21 20 19 18 16 16 16 15 16 15 14 14 13 12 11 9 10 8 8 10 11 12 11 12 12 11 10 10 12 10 10 11 10 9 6 3 4 7 8 11 13 12 13 12 10 12 13 11 11 11 11 11 12 12 11 10 10 10 10 10 10 11 10
19 18 20 22 24 26 26 27 30 29 23 22 24 24 23 22 24 25 25 26 23 21 21 20 19 18 16 16 15 15 16 15 14 14 13 12 11 10 11 9 9 10 12 12 10 11 12 12 10 9 10 9 8 10 10 7 4 4 5 5 8 12 13 12 12 11 12 13 13 11 11 11 12 12 12 11 11 11 10 10 10 11 10 10 10
18 19 19 17 19 20 23 28 30 28 21 19 24 26 23 22 22 23 25 24 21 21 20 19 19 18 17 17 16 16 16 16 15 14 12 13 12 11 12 11 10 9 10 12 11 10 11 12 11 10 10 10 9 11 10 6 4 6 4 3 8 12 14 15 13 12 13 13 12 12 12 12 12 12 12 11 11 11 11 12 12 13 13 12 11
18 19 15 14 16 19 23 26 27 23 16 18 24 25 23 22 20 19 23 23 21 21 20 19 19 18 17 17 18 18 17 16 15 14 13 12 12 12 12 12 12 11 10 11 12 11 11 12 10 10 11 10 9 11 10 7 5 6 3 4 8 12 16 16 14 14 14 12 11 12 13 13 12 12 12 11 11 12 13 13 13 14 16 16 15
16 15 12 14 17 18 19 18 17 15 15 21 25 23 22 22 20 16 19 22 22 20 19 19 19 20 19 18 19 19 18 15 13 14 13 12 11 12 12 12 11 12 11 11 12 11 10 11 10 11 11 9 10 12 10 8 6 6 4 6 10 12 17 17 16 17 15 12 11 12 12 12 13 12 12 12 12 14 14 13 12 13 14 16 17
12 13 14 17 15 12 13 11 11 13 18 25 26 24 21 20 20 17 19 22 22 21 20 20 20 21 21 20 19 18 17 14 12 12 12 12 11 10 11 11 10 10 11 10 10 9 8 8 8 10 10 9 13 12 9 8 5 4 5 8 11 15 18 18 17 17 13 11 11 11 11 11 12 12 12 13 13 14 13 11 10 11 11 12 13
10 13 13 16 14 12 15 15 15 17 22 27 25 24 22 20 22 21 21 22 22 24 24 22 22 22 20 21 20 17 16 14 11 12 12 12 11 10 10 10 10 9 9 9 8 8 8 8 7 7 8 9 12 9 8 9 6 7 10 11 12 15 19 17 15 16 15 13 10 9 10 11 12 13 13 13 13 13 11 9 9 9 9 8 9
12 13 13 14 15 16 20 21 20 20 22 25 23 22 23 23 22 20 21 22 22 24 26 26 25 22 19 20 19 17 16 13 11 12 12 12 12 11 10 9 10 10 9 9 9 9 9 9 7 10 14 13 12 9 10 10 8 10 12 13 14 15 18 17 14 16 17 15 12 10 9 10 12 13 13 12 12 11 9 8 8 7 7 8 8
13 15 16 18 19 19 20 21 21 21 22 23 22 23 24 23 20 18 19 21 21 23 26 26 24 21 19 18 19 18 16 14 14 14 13 13 12 12 11 10 11 11 11 11 10 9 9 9 8 11 15 15 14 12 12 10 9 11 10 11 15 15 17 17 15 16 16 16 15 14 11 10 11 11 11 11 10 9 7 7 7 7 7 7 6
13 16 18 18 20 19 19 21 22 21 22 23 23 23 23 22 19 18 19 20 20 21 23 24 22 21 18 17 18 17 16 14 15 15 14 13 12 11 11 11 11 11 11 11 10 9 9 10 10 10 12 13 13 12 13 12 9 11 11 11 14 16 16 15 15 16 15 15 16 15 13 12 10 9 10 10 9 8 7 7 7 7 7 7 6
14 16 18 19 20 19 19 22 23 22 23 24 24 23 20 19 18 18 20 21 20 20 21 22 23 22 19 19 17 16 17 17 15 15 14 12 11 11 10 11 12 10 10 12 11 10 10 10 10 11 12 13 13 12 12 12 9 10 12 12 12 14 15 14 15 17 14 14 14 14 13 13 12 9 9 9 8 8 7 7 7 6 6 7 7
15 16 18 20 21 20 20 22 24 24 23 24 26 25 20 18 17 17 18 21 20 18 19 20 24 24 22 22 19 18 19 17 16 16 14 12 11 11 11 12 12 11 11 11 10 9 11 10 9 11 13 14 13 13 12 11 10 9 10 12 12 14 15 14 14 15 14 13 12 13 12 12 11 9 9 8 7 8 7 7 6 6 6 7 7
14 14 16 19 20 22 21 22 24 24 22 24 26 25 21 19 20 19 19 19 19 18 19 19 22 24 23 23 22 20 20 18 17 16 15 12 12 11 11 12 11 11 11 10 9 9 10 10 11 12 14 14 12 11 12 11 10 10 9 11 13 14 15 14 13 12 13 12 11 12 12 10 9 8 9 8 7 7 8 9 9 8 8 7 8
13 13 15 18 19 21 22 22 23 22 21 22 24 24 21 21 22 21 21 20 19 20 21 20 21 20 18 20 22 20 20 19 17 15 14 12 12 11 11 12 11 11 11 10 10 10 10 11 13 14 15 13 11 11 12 11 11 11 11 12 13 13 14 15 13 11 12 12 11 11 11 9 9 9 9 9 8 7 8 11 11 10 10 10 10
13 15 17 19 20 21 21 21 21 21 20 20 23 24 22 21 22 21 22 21 18 20 19 19 19 14 12 17 18 18 18 17 15 14 13 12 12 12 12 12 11 11 12 10 11 12 10 12 14 14 14 12 11 12 13 13 13 12 12 13 13 12 13 13 12 12 13 12 11 10 9 10 10 10 9 9 9 9 10 12 11 11 12 12 11
14 17 18 20 20 21 21 21 20 22 22 20 21 23 22 21 21 19 19 18 15 16 15 16 17 11 13 19 17 16 16 13 15 15 13 13 13 13 13 12 11 11 11 11 12 13 11 12 13 12 12 12 12 13 15 17 16 13 11 12 13 13 12 12 12 12 12 11 10 9 7 9 10 9 9 9 11 11 11 12 10 9 12 13 13
16 18 18 19 21 20 20 19 20 22 22 20 19 21 20 19 18 15 15 15 13 15 14 15 18 14 15 20 18 16 15 13 14 15 15 14 14 13 12 12 11 10 12 11 11 13 12 12 13 12 11 12 12 14 16 16 14 12 11 10 9 10 10 10 10 10 10 9 10 9 6 8 8 8 10 10 11 11 11 11 10 9 12 13 12
17 18 18 20 21 20 19 19 19 19 20 20 18 18 17 15 15 13 13 14 13 14 13 15 17 15 15 18 16 14 14 13 12 12 13 14 14 13 11 12 11 11 12 11 10 13 14 12 13 13 12 12 11 14 15 12 11 13 12 7 4 5 5 6 8 8 8 8 9 10 8 9 9 10 12 12 11 11 11 11 10 11 13 12 11
15 17 19 21 20 19 19 19 18 17 18 18 16 15 14 14 15 15 14 13 12 12 13 15 14 13 14 16 14 14 14 13 11 12 14 14 14 13 12 12 11 12 13 11 11 13 14 13 13 13 13 13 12 12 12 10 12 12 7 3 4 4 2 4 8 8 7 7 9 9 9 10 10 11 13 12 11 12 12 11 12 14 13 11 12
13 12 18 20 19 18 19 19 17 16 16 15 14 14 12 12 14 14 12 11 11 12 14 16 14 13 14 13 13 14 14 12 12 13 14 14 14 14 12 11 11 12 12 12 12 13 13 13 13 13 13 13 13 13 10 9 11 9 4 4 4 2 2 6 9 7 6 8 8 9 10 12 12 12 13 13 13 12 12 12 13 13 12 12 14
16 13 14 15 17 18 20 20 18 16 17 16 15 14 11 11 13 13 11 10 12 13 15 18 16 15 16 13 11 11 11 11 13 13 13 14 14 14 13 11 12 13 12 12 12 12 13 12 13 14 12 12 14 14 10 8 9 8 5 3 1 2 7 10 6 4 6 8 8 10 10 11 13 13 13 15 14 11 12 13 13 13 13 13 14
19 15 10 14 19 21 23 22 19 19 20 19 18 18 17 15 15 13 10 10 11 13 15 17 15 15 15 12 9 9 10 12 14 14 14 14 14 14 14 12 12 13 12 11 12 12 12 12 13 13 12 12 14 14 11 9 9 7 6 3 3 6 11 11 6 4 5 5 7 10 8 7 11 14 14 15 14 13 13 13 12 13 13 12 11
20 15 12 18 22 22 23 23 22 23 23 22 22 23 24 23 20 16 13 11 10 11 14 15 14 14 14 12 11 10 10 12 13 13 14 15 14 14 13 13 13 13 13 13 11 11 10 12 14 13 12 13 14 14 12 11 10 8 7 4 4 7 10 9 8 7 5 3 5 8 7 10 13 15 14 13 14 13 13 13 12 12 13 14 13
23 22 22 22 22 20 22 23 23 25 25 27 28 26 25 27 25 23 21 16 11 10 12 13 15 16 14 13 13 12 10 11 11 11 12 13 13 13 12 12 13 12 13 13 12 11 10 11 13 14 14 13 12 12 13 12 10 9 8 6 6 8 8 7 8 7 7 6 4 4 7 9 12 12 12 12 12 11 11 12 12 12 15 16 13
25 27 29 26 21 19 20 22 25 26 26 28 30 28 25 25 25 25 25 20 15 13 12 12 14 16 15 13 14 12 10 10 10 10 10 11 12 13 13 12 12 12 13 12 11 13 11 11 13 13 14 14 11 10 12 12 10 10 10 6 6 9 8 5 6 7 8 7 4 5 9 9 7 8 10 11 10 10 10 11 12 13 14 14 12
22 24 27 24 19 17 20 23 26 27 26 25 27 27 27 27 27 27 25 23 21 18 14 13 14 16 15 14 14 12 10 10 10 10 10 10 10 12 12 12 11 11 12 11 11 12 12 12 14 12 12 14 14 12 12 11 10 11 10 6 7 10 8 5 7 9 8 6 5 6 9 11 10 10 10 11 11 11 10 11 14 15 15 15 13
Wind_Direction
122 139 148 149 149 150 153 156 159 161 162 160 160 161 159 156 151 147 146 145 144 144 142 138 133 130 128 127 127 122 117 113 108 103 99 96 95 96 98 99 98 92 89 86 82 82 81 81 80 80 79 81 82 77 75 76 77 79 84 87 86 84 80 79 81 82 83 82 80 80 81 81 77 76 76 78 80 80 79 79 79 77 75 74 73
125 138 147 150 148 148 152 158 160 162 163 161 161 161 159 156 152 149 148 146 146 146 143 139 135 132 129 128 126 121 117 113 108 104 101 101 99 100 99 99 99 95 93 88 83 81 81 81 79 79 80 85 85 78 75 77 83 85 87 89 87 84 81 79 82 85 84 83 82 81 81 82 80 77 76 77 77 77 76 76 77 76 74 73 72
125 136 146 149 147 148 152 159 161 163 163 162 161 161 160 156 153 150 149 148 147 147 143 139 136 134 131 128 124 119 119 116 110 106 104 103 102 102 98 99 103 101 98 90 84 82 81 80 80 80 80 85 85 80 79 81 87 92 95 94 93 91 87 84 84 86 85 84 84 82 81 80 80 78 77 77 75 72 72 72 73 74 74 72 70
122 133 144 147 147 149 153 158 162 163 163 161 161 161 160 157 154 152 151 149 149 148 144 141 137 135 132 129 124 122 123 120 115 110 107 105 105 103 102 106 108 104 99 95 90 85 81 79 79 79 80 81 85 82 83 89 91 98 103 102 102 99 99 96 89 86 84 86 87 85 82 80 77 75 74 73 74 72 70 70 69 69 70 70 69
122 133 141 140 144 150 154 158 161 164 163 161 160 161 159 157 155 153 151 150 151 149 146 142 138 136 135 132 127 129 129 125 120 114 113 110 107 106 109 113 109 105 103 100 94 88 82 78 76 77 78 78 81 82 87 97 99 103 107 107 104 99 102 105 103 98 89 84 87 87 85 81 77 72 68 65 68 72 71 70 69 67 66 66 66
123 130 134 133 138 148 155 157 161 164 163 162 160 160 159 157 156 154 153 153 153 151 148 143 140 141 139 135 132 136 133 130 126 119 117 110 107 111 115 115 111 111 108 102 96 90 84 79 76 74 74 75 77 78 91 105 107 108 108 106 102 96 95 98 105 109 101 88 85 85 84 81 77 72 69 65 61 65 73 74 71 70 69 66 66
124 128 129 130 138 151 156 157 161 163 163 162 160 160 158 157 157 155 155 155 154 152 149 144 144 144 142 140 137 139 136 135 131 124 122 115 113 119 121 120 117 117 112 106 98 92 87 82 79 75 71 71 75 78 93 111 113 112 107 99 96 93 89 91 91 101 112 96 87 86 86 83 77 73 71 72 65 60 68 76 74 71 70 68 68
127 130 128 130 142 155 157 159 161 162 162 161 160 159 158 158 158 156 156 156 154 152 147 144 145 147 146 144 140 138 136 139 136 129 129 125 124 128 128 124 121 120 117 111 103 98 90 86 80 75 71 70 71 76 92 111 118 116 104 94 90 84 77 73 61 70 105 90 97 98 87 82 80 77 71 74 73 67 66 70 71 70 70 69 69
131 132 130 132 146 156 156 159 159 161 161 160 160 158 158 158 158 157 156 156 153 149 144 141 145 149 146 143 139 132 131 137 137 132 133 131 130 135 132 128 125 123 122 119 112 103 93 89 84 75 73 70 68 77 93 107 120 120 107 97 91 82 77 73 68 79 93 87 99 103 87 82 84 81 73 76 81 78 69 66 68 70 70 69 71
133 134 136 138 149 156 154 156 158 160 161 160 158 156 157 158 158 157 157 154 150 147 141 141 145 146 144 141 137 131 128 133 133 131 134 134 137 144 140 137 129 120 117 117 110 101 95 92 89 83 80 73 66 79 98 110 122 127 117 106 97 86 78 75 72 80 86 82 89 92 87 88 84 79 76 76 78 77 74 73 75 75 74 73 74
132 132 137 142 151 154 152 155 157 159 159 159 157 156 157 157 158 157 156 151 147 147 143 143 145 142 141 140 137 133 129 132 135 136 138 142 149 151 144 139 127 120 118 112 107 104 106 103 97 92 89 79 74 92 106 114 125 131 125 113 98 80 68 65 67 78 85 82 82 81 82 84 81 79 76 76 77 79 81 82 81 80 78 77 76
129 129 135 144 152 153 151 154 155 157 158 158 157 155 156 155 157 156 153 149 147 150 148 147 146 142 140 140 138 135 134 137 142 144 146 150 155 152 144 139 132 132 126 115 113 115 116 111 106 97 92 86 89 107 114 117 123 127 122 109 88 72 68 69 72 83 87 84 84 83 83 84 86 84 81 83 83 82 83 81 80 81 79 80 80
127 127 132 143 151 152 151 153 154 157 157 157 156 155 155 154 154 152 151 151 151 153 152 151 150 146 142 142 141 139 141 144 147 148 150 154 155 147 142 140 134 133 126 120 118 117 116 108 108 97 94 98 101 115 121 119 119 119 111 96 80 69 69 74 78 86 87 86 86 86 88 89 90 88 86 86 84 83 82 81 81 81 79 82 84
125 125 130 140 149 153 154 154 154 156 156 155 155 154 152 151 151 151 153 154 154 155 155 156 154 150 146 147 146 144 147 151 152 151 152 155 156 147 139 135 130 131 130 125 117 114 118 111 106 97 96 104 103 115 124 123 119 112 99 85 74 67 67 77 83 85 84 88 90 89 90 91 92 90 89 87 85 85 85 84 83 81 79 82 83
128 128 133 140 147 153 155 154 155 155 156 156 153 152 151 151 152 153 155 155 156 156 156 158 158 155 151 150 150 149 149 152 154 152 152 157 159 155 142 135 134 134 132 125 118 118 120 115 109 104 101 102 100 112 125 123 114 102 90 81 76 73 76 85 91 89 87 88 89 89 88 87 89 89 88 88 86 86 86 85 84 81 78 80 81
134 133 136 143 146 151 155 156 156 156 156 156 155 154 154 155 155 155 156 156 157 158 158 160 162 160 157 154 152 152 151 152 157 154 155 163 164 160 149 139 141 139 134 126 129 130 121 116 115 111 107 103 101 110 124 123 108 93 83 78 77 78 86 95 96 90 90 88 86 88 87 85 85 87 88 87 86 86 84 84 84 81 79 79 78
139 137 140 145 147 149 154 157 159 158 157 157 158 158 158 158 157 158 158 159 161 160 160 161 165 165 162 157 154 155 157 158 162 160 160 168 170 164 155 146 145 143 143 137 141 142 123 118 121 115 109 106 102 107 121 120 105 90 83 81 80 82 85 90 91 88 88 87 85 87 89 90 89 89 89 86 84 84 82 82 82 81 80 79 78
141 140 142 146 149 149 151 158 160 157 158 159 160 160 160 160 160 161 160 162 162 160 161 163 167 168 164 161 159 159 157 158 162 163 164 170 179 179 175 173 165 148 147 144 148 147 123 119 125 119 111 105 102 106 114 115 107 98 93 90 89 91 88 86 87 86 85 85 85 88 92 94 93 90 89 87 85 83 81 80 79 79 80 79 80
145 141 143 148 150 150 151 157 157 156 160 159 160 162 162 162 162 162 160 161 157 154 158 161 163 163 164 162 161 157 151 153 155 156 159 167 180 188 193 190 187 162 145 145 150 146 125 122 129 126 117 109 106 108 111 113 110 106 102 97 92 87 86 92 93 89 89 87 86 92 95 91 89 89 88 88 85 83 81 79 79 78 77 77 78
148 144 148 153 151 153 155 155 157 157 158 156 161 164 165 165 163 162 159 157 153 151 155 158 160 160 162 160 155 151 148 149 148 149 152 159 172 184 188 186 189 171 147 148 153 147 132 125 133 135 127 118 114 113 113 112 109 104 98 93 89 86 88 94 94 93 93 91 91 96 96 89 88 88 88 88 85 84 82 79 79 77 75 76 76
151 149 155 161 157 158 159 158 159 158 155 156 162 165 165 165 163 163 160 158 155 154 158 157 157 158 160 158 153 148 146 146 147 149 151 156 166 174 179 183 186 174 157 156 155 150 138 128 136 144 139 128 123 121 119 115 111 103 94 89 87 96 107 106 100 98 97 96 96 98 98 95 92 90 88 87 85 83 83 81 79 77 75 74 74
157 156 160 167 163 161 164 161 159 157 156 157 162 165 164 162 162 163 160 159 159 159 160 156 154 156 158 156 151 148 147 148 150 151 152 156 159 161 167 175 177 175 171 166 160 154 144 138 140 148 149 139 130 128 126 122 115 106 101 95 86 99 113 110 108 106 103 103 101 99 98 97 95 91 90 88 87 84 82 81 78 77 76 76 76
163 164 164 170 169 165 167 163 160 158 157 156 161 166 163 160 158 157 158 157 156 158 158 156 156 157 158 159 153 150 152 151 150 151 152 152 153 156 157 160 172 177 177 172 165 159 152 149 145 150 156 148 136 130 126 122 114 108 104 96 88 104 112 104 105 104 102 105 108 108 101 99 99 93 91 88 85 83 79 79 79 78 76 75 76
168 170 167 171 172 168 167 164 162 158 156 157 160 165 163 159 156 153 154 152 152 157 159 159 161 162 163 166 159 154 156 152 149 149 150 149 150 156 156 158 171 173 174 174 168 164 162 162 156 156 161 156 146 143 139 128 112 105 101 100 109 121 115 98 99 104 103 105 108 110 107 104 102 94 91 87 84 83 81 83 82 80 79 77 76
170 173 171 173 171 167 166 163 162 158 157 161 162 164 162 159 158 154 152 154 158 162 165 164 164 168 168 167 164 161 162 157 153 154 150 148 152 158 157 157 165 169 172 173 172 171 167 169 171 164 164 166 163 165 174 175 174 157 112 120 130 125 115 104 109 114 108 105 104 103 104 103 101 98 95 90 88 85 81 80 81 80 81 80 78
172 176 176 173 168 166 166 164 163 160 160 163 162 162 163 161 158 156 157 161 166 165 165 169 169 168 166 168 169 167 167 165 161 157 150 150 158 156 148 149 158 167 169 168 177 179 172 176 182 175 172 180 181 179 181 181 191 205 149 143 140 123 116 116 119 116 105 109 109 102 103 105 104 100 98 95 92 88 83 81 82 80 76 75 76
175 179 182 172 162 163 166 168 166 161 160 161 162 164 163 162 157 157 164 167 166 164 166 174 174 170 170 174 176 173 170 168 161 156 154 162 167 154 152 158 157 161 164 167 180 185 181 183 190 191 191 199 202 196 189 185 208 206 165 148 140 123 118 123 122 111 106 112 112 106 105 110 109 104 104 101 95 91 84 81 80 80 79 78 81
180 183 182 163 152 157 166 170 167 163 160 158 165 168 159 158 158 155 163 166 163 164 170 174 175 176 179 179 177 174 171 167 162 160 167 177 175 165 169 173 168 167 170 176 184 190 189 187 194 199 204 215 211 198 194 204 231 199 167 112 131 126 119 121 115 107 106 108 107 105 104 107 110 107 106 104 99 94 87 83 81 80 83 84 87
189 183 170 152 156 167 172 170 168 166 160 158 166 167 158 160 163 157 160 164 165 167 169 170 174 179 182 181 178 172 167 168 168 165 170 180 178 173 174 175 176 179 179 181 185 192 192 190 197 198 204 219 213 201 199 199 188 169 144 119 145 132 116 113 109 107 110 110 108 106 102 103 109 110 109 108 105 101 97 93 86 80 78 79 81
193 169 150 165 172 172 174 170 165 155 144 158 166 165 161 163 166 163 161 163 167 170 170 172 176 181 180 179 180 173 166 173 179 170 169 178 176 172 174 177 180 180 182 185 186 193 195 194 201 199 199 205 195 194 196 186 166 159 131 117 144 133 116 116 116 115 115 112 111 110 105 102 108 111 112 113 111 109 105 98 88 81 75 73 75
186 149 147 169 165 153 161 161 157 147 151 167 170 164 160 160 163 161 157 158 163 171 180 182 178 180 178 175 176 174 170 176 185 178 175 177 172 173 177 177 175 174 180 180 180 185 187 185 189 195 197 193 183 182 183 174 153 137 99 103 138 134 123 125 123 120 116 107 106 113 112 106 111 115 114 112 112 112 108 101 94 88 82 76 76
166 149 157 163 148 148 166 168 161 153 159 170 171 164 162 165 166 162 160 159 160 168 181 184 181 180 176 174 174 174 173 172 183 183 177 174 171 175 175 172 168 167 172 169 169 169 166 165 155 152 160 179 185 178 174 171 137 93 88 103 133 129 123 129 130 126 119 114 112 112 113 112 116 118 117 117 116 115 114 113 105 93 89 86 81
158 156 158 157 157 173 183 178 166 157 158 167 169 165 168 171 166 164 163 161 161 164 172 177 180 178 175 176 173 174 174 169 182 184 176 176 175 175 175 172 166 164 167 164 165 163 158 163 145 125 132 147 163 165 172 166 128 103 98 104 117 118 124 133 138 133 125 127 130 121 118 119 121 121 119 120 119 118 120 118 101 86 85 83 82
159 153 146 153 172 184 187 178 164 161 164 168 165 160 169 171 165 165 160 158 163 163 167 171 174 175 176 176 173 174 171 167 180 181 177 179 176 174 172 169 166 167 169 162 160 161 157 160 154 134 135 139 143 150 154 139 114 113 109 107 111 115 127 132 137 139 131 133 137 138 138 133 129 128 122 117 113 110 108 101 88 82 83 79 77
161 155 149 155 177 182 181 174 162 161 167 168 162 158 167 168 166 168 157 155 163 165 169 171 173 175 176 175 178 177 170 172 183 183 179 176 174 174 170 167 168 168 166 161 156 159 157 152 153 145 139 136 131 135 136 125 118 118 113 116 117 116 123 129 135 140 139 136 139 145 147 141 137 135 129 123 113 106 99 91 83 82 85 83 78
170 164 157 158 172 174 171 172 167 164 165 165 160 160 168 168 169 168 157 154 161 171 176 175 175 176 176 176 180 181 178 183 187 184 178 173 175 173 171 170 166 165 164 162 158 165 166 149 149 150 140 132 125 131 135 128 129 124 117 121 124 121 121 128 133 135 140 140 141 147 149 144 140 140 134 126 117 107 96 88 84 82 85 88 87
178 165 159 157 163 167 167 170 173 171 165 163 160 161 171 171 169 166 159 157 164 180 183 179 177 176 178 178 179 182 182 186 187 185 177 172 177 174 176 172 163 167 169 164 165 176 174 155 149 151 144 137 132 135 134 130 134 129 123 126 130 130 125 128 129 126 128 133 139 143 148 147 139 140 136 129 121 109 98 88 81 84 87 88 90
179 159 159 158 160 167 169 169 174 174 167 163 160 163 169 167 168 169 164 161 169 184 186 184 183 180 183 182 179 179 177 182 188 186 179 172 175 174 173 168 165 172 169 164 167 172 171 159 148 148 151 146 137 137 135 135 136 123 124 132 133 134 131 128 128 127 125 127 134 135 141 148 141 138 135 133 125 109 103 91 79 86 90 86 87
172 158 160 159 161 167 168 167 170 173 169 164 162 164 166 164 165 169 169 166 167 176 181 184 188 191 197 188 178 177 178 181 185 183 179 174 176 176 168 166 171 172 167 166 162 157 158 152 143 144 154 150 139 140 138 137 135 123 124 127 125 130 133 131 133 140 135 129 134 134 132 135 134 134 136 137 130 118 114 99 82 84 90 85 81
166 162 161 158 160 161 164 164 165 169 169 166 167 166 164 164 166 168 173 174 168 169 172 176 186 202 209 189 176 178 180 179 180 179 179 180 179 175 165 167 175 170 167 169 160 156 153 148 145 143 146 145 142 143 140 136 129 122 123 122 121 129 133 133 137 142 139 132 135 135 130 131 133 135 138 133 123 121 122 115 99 87 90 86 77
167 166 162 159 160 160 162 163 166 171 170 167 169 168 166 168 170 170 172 173 167 166 165 167 177 189 189 182 177 179 183 184 182 180 183 185 177 170 168 168 174 175 170 166 160 161 161 152 149 147 143 145 148 146 144 138 128 122 120 116 118 126 131 135 139 140 140 136 134 133 132 138 136 131 133 129 120 117 117 125 123 98 90 88 80
167 165 163 162 161 163 163 164 170 174 175 173 171 172 172 173 176 171 166 165 164 166 164 162 172 183 181 176 175 180 188 193 187 183 188 183 169 170 177 171 172 176 170 165 164 164 167 160 151 152 152 149 149 150 149 143 136 135 130 119 113 118 125 132 135 138 140 141 140 143 146 141 135 130 132 129 122 113 105 121 132 108 95 93 89
170 168 167 165 161 163 163 165 171 173 176 176 174 177 174 172 175 168 164 164 157 159 162 160 169 183 179 169 170 179 188 195 191 183 186 181 170 174 179 176 176 171 166 169 166 162 163 161 157 160 157 149 149 153 156 154 149 147 139 131 131 127 124 133 140 145 150 149 147 153 155 145 141 136 130 125 123 117 110 119 121 112 109 105 102
177 175 173 168 158 158 161 164 172 174 177 178 176 177 170 169 172 165 168 171 153 149 162 166 165 173 173 164 170 184 186 191 193 180 181 182 178 180 178 179 179 167 167 168 158 160 162 159 164 168 158 150 149 152 161 159 150 153 146 128 152 153 131 141 140 139 149 150 144 149 154 153 151 142 134 129 126 121 118 119 113 113 118 112 104
195 193 188 176 153 153 161 161 168 175 178 179 173 170 161 160 166 161 157 159 150 147 161 170 168 167 172 169 175 188 185 190 201 191 189 189 182 183 178 177 177 166 168 168 159 164 167 162 170 172 161 156 153 150 158 163 156 159 144 113 147 160 126 143 135 124 146 152 144 147 149 149 151 153 152 139 128 124 125 123 115 114 115 107 100
196 217 211 173 147 157 166 163 166 170 173 176 172 171 165 160 175 175 155 152 160 157 164 174 174 171 175 175 178 187 188 199 205 195 195 196 186 185 182 179 178 167 169 172 167 170 171 170 175 172 164 160 156 151 155 172 172 166 150 124 84 112 142 152 142 122 147 149 142 144 150 159 163 161 149 131 126 134 133 124 116 114 117 114 113
185 213 210 162 164 174 169 164 169 172 174 176 174 177 177 173 183 187 167 167 177 168 169 175 174 171 172 175 181 188 194 204 202 193 196 198 192 192 188 184 179 170 171 174 173 175 174 174 174 169 162 156 154 154 159 173 176 172 171 145 72 123 150 155 146 139 142 139 139 136 129 139 146 140 126 117 124 136 134 126 121 126 130 124 123
173 183 165 168 184 178 163 163 171 176 175 176 175 177 179 174 174 181 176 179 188 178 174 175 172 173 173 175 183 191 200 205 200 194 197 199 201 200 191 184 178 173 174 173 171 175 175 173 167 165 168 163 158 160 167 172 169 167 166 144 110 135 150 149 142 142 135 123 135 131 102 85 99 113 118 122 129 136 138 134 131 135 134 122 117
159 156 159 182 190 169 160 167 174 177 176 178 178 176 177 173 173 180 173 169 183 186 182 184 180 179 180 180 185 188 196 205 200 194 196 197 197 195 189 184 178 175 177 175 170 172 177 170 158 159 168 168 164 168 175 172 163 166 165 150 143 144 140 142 143 135 134 142 141 131 117 95 88 101 118 129 134 141 145 140 133 130 126 120 122
154 156 169 190 188 166 165 171 177 182 180 180 177 171 170 172 178 181 169 159 171 179 183 191 188 185 187 189 188 186 189 198 196 192 195 191 186 189 189 187 185 180 179 178 173 173 179 173 162 161 161 158 160 174 184 178 169 173 167 152 157 154 138 139 155 143 138 146 142 140 144 137 117 114 128 138 142 143 144 141 135 129 126 128 137
158 163 176 197 197 182 180 177 180 186 185 183 177 170 169 171 177 180 169 162 166 172 179 186 188 188 188 190 189 183 181 188 187 187 191 187 187 195 192 185 189 187 178 178 174 173 177 173 168 166 158 154 157 165 175 176 175 174 163 150 168 168 157 160 170 162 158 155 140 146 161 156 147 146 152 155 151 147 147 143 135 134 138 144 150